Simultaneous Nadir Overpasses (SNOs) Predictions

Prediction of SNOs between GOES-16 and AQUA Satellite Orbit:

Table of predicted SNOs for the next 14.0 days since TLE Epoch: 10/3/2020
Index Date Time (GOES-16) GOES-16 Lat,Lon AQUA Lat,Lon Distance(km) Time Diff (sec)
1 10/04/2020 06:29:37 -0.01, -75.22 -0.28, -73.88 151.85 80
2 10/04/2020 18:51:00 0.01, -75.23 -0.83, -79.07 437.03 80
3 10/06/2020 06:17:25 -0.00, -75.25 -0.91, -70.93 491.23 80
4 10/06/2020 18:38:49 0.01, -75.26 -0.19, -76.12 97.52 80
5 10/08/2020 18:29:17 0.01, -75.29 0.44, -73.16 242.20 80
6 10/09/2020 06:50:32 -0.01, -75.30 0.62, -78.33 344.02 80
7 10/11/2020 06:38:20 -0.01, -75.33 -0.02, -75.37 4.59 80
8 10/13/2020 06:23:29 -0.01, -75.37 -0.66, -72.42 336.42 80
9 10/13/2020 18:44:51 0.01, -75.38 -0.48, -77.60 252.17 80
10 10/15/2020 18:35:19 0.01, -75.43 0.17, -74.64 89.25 80
11 10/16/2020 06:56:35 -0.01, -75.44 0.91, -79.81 496.24 80
